Tracking 18843 objects as of 20-November-2017
HD Live streaming from Space Station
objects crossing your sky now

FENGYUN 1C DEB

Track FENGYUN 1C DEB now!
10-day predictions


NORAD ID: 30994
Int'l Code: 1999-025BCL
Perigee: 852.5 km
Apogee: 877.9 km
Inclination: 99.0 °
Period: 102.1 minutes
Semi major axis: 7236 km
RCS: 0.0074 m2 (small)
Launch date: May 10, 1999
Source: People's Republic of China (PRC)
Launch site: Taiyaun Space Center, China (TSC)

Note: This is SATELLITE DEBRIS
aabbcc
Your satellite tracking list
Your tracking list is empty




NASA's NSSDC Master Catalog

Two Line Element Set (TLE):
1 30994U 99025BCL 17323.58049755 +.00000064 +00000-0 +61379-4 0  9999
2 30994 098.9526 347.8641 0017559 227.5658 260.0680 14.10371939550584
Source of the keplerian elements: AFSPC